Home   Weather   Paradise   Past weeks

Flag for USA Past Weather in Paradise, California, USA — Yesterday and Last 2 Weeks

Now
57 °F

Passing clouds.


Feels Like: 55 °F
Forecast: 44 / 66 °F
Wind: 12 mph from Northwest

Location: Chico Municipal

Current Time: Apr 28, 2017 at 9:33:40 am

Latest Report: Apr 28, 2017 at 8:50 am


Visibility: 80 mi

Pressure: 30.09 "Hg (28.26 "Hg at 527m altitude)

Humidity: 39%

Dew Point: 32 °F

Location of ParadiseLocation

Past Weather in Paradise — Graph

°F

Paradise Temperature Yesterday

Maximum temperature yesterday: 73 °F (at 3:47 pm)
Minimum temperature yesterday: 50 °F (at 6:50 am)
Average temperature yesterday: 61 °F

High & Low Weather Summary for the Past Weeks

 TemperatureHumidityPressure
High77 °F (Apr 21, 4:55 pm)100% (Apr 13, 3:48 pm)30.31 "Hg (Apr 13, 3:48 pm)
Low37 °F (Apr 14, 4:15 am)19% (Apr 21, 5:15 pm)29.90 "Hg (Apr 23, 6:35 pm)
Average58 °F70%30.04 "Hg
* Reported Apr 13 7:47 am — Apr 28 7:50 am, Paradise, Weather by CustomWeather, © 2017

Note: Actual official high and low records may vary slightly from our data, if they occured in-between our weather recording intervals... More about our weather records

Advertising

Paradise Weather History for the Previous 24 Hours

Scroll right to see more
 ConditionsComfort  
Time TempWeatherWind HumidityBarometerVisibility
7:50 am
Fri, Apr 28
52 °FPassing clouds.12 mph47%30.09 "Hg80 mi
6:55 am46 °FPassing clouds.9 mph57%30.07 "Hg80 mi
5:35 am46 °FClear.3 mph57%30.05 "Hg10 mi
5:15 am46 °FClear.6 mph57%30.05 "Hg10 mi
4:55 am45 °FClear.6 mph71%30.05 "Hg10 mi
4:35 am45 °FClear.9 mph71%30.05 "Hg10 mi
4:15 am45 °FClear.7 mph76%30.04 "Hg10 mi
3:55 am46 °FClear.No wind71%30.04 "Hg10 mi
3:35 am46 °FClear.12 mph71%30.04 "Hg10 mi
3:15 am48 °FClear.13 mph66%30.04 "Hg10 mi
2:55 am48 °FClear.12 mph66%30.04 "Hg10 mi
2:35 am48 °FClear.10 mph66%30.03 "Hg10 mi
1:55 am50 °FClear.9 mph67%30.03 "Hg10 mi
1:35 am50 °FClear.10 mph67%30.03 "Hg10 mi
1:15 am50 °FClear.12 mph67%30.03 "Hg10 mi
12:55 am52 °FClear.10 mph62%30.02 "Hg10 mi
12:15 am54 °FClear.10 mph63%30.02 "Hg10 mi
11:55 pm
Thu, Apr 27
55 °FClear.13 mph59%30.02 "Hg10 mi
11:35 pm55 °FClear.9 mph59%30.02 "Hg10 mi
11:15 pm57 °FClear.12 mph51%30.01 "Hg10 mi
10:55 pm57 °FClear.15 mph51%30.01 "Hg10 mi
10:35 pm57 °FClear.14 mph51%30.01 "Hg10 mi
10:15 pm59 °FClear.12 mph48%30.00 "Hg10 mi
9:55 pm59 °FClear.9 mph48%30.00 "Hg10 mi
9:35 pm61 °FClear.12 mph45%29.99 "Hg10 mi
8:55 pm61 °FClear.10 mph48%29.97 "Hg10 mi
8:35 pm59 °FClear.7 mph55%29.96 "Hg10 mi
8:15 pm63 °FClear.6 mph45%29.96 "Hg10 mi
7:55 pm64 °FSunny.7 mph40%29.95 "Hg10 mi
7:35 pm66 °FSunny.8 mph35%29.94 "Hg10 mi
7:15 pm70 °FSunny.8 mph29%29.94 "Hg10 mi
6:55 pm72 °FSunny.9 mph23%29.95 "Hg10 mi
6:35 pm72 °FSunny.12 mph23%29.94 "Hg10 mi
6:15 pm72 °FSunny.10 mph23%29.95 "Hg10 mi
5:55 pm72 °FSunny.7 mph23%29.94 "Hg10 mi
5:35 pm72 °FSunny.14 mph23%29.95 "Hg10 mi
4:55 pm73 °FSunny.16 mph20%29.95 "Hg10 mi
3:47 pm73 °FScattered clouds.9 mph19%29.97 "Hg40 mi
2:50 pm72 °FPartly sunny.9 mph23%29.99 "Hg40 mi
1:52 pm70 °FPartly sunny.14 mph27%30.00 "Hg40 mi
12:47 pm66 °FScattered clouds.7 mph35%30.04 "Hg40 mi
11:50 am66 °FBroken clouds.12 mph35%30.05 "Hg40 mi
10:49 am64 °FPartly sunny.12 mph40%30.05 "Hg40 mi
9:48 am59 °FBroken clouds.12 mph68%30.05 "Hg40 mi
Weather by CustomWeather, © 2017

See weather overviewHow to use our weather pages